St. James, MN

11:54 AM CDT on August 19, 2019 (GMT -0500)
Saint James Municipal

Weather History for KJYG - June, 2019

Change the Weather History Date:

Wednesday, June 5, 2019

  Actual Average Record
Temperature  
Mean Temperature 75 °F -  
Max Temperature 86 °F 79 °F 93 °F (1968)
Min Temperature 64 °F 55 °F 44 °F (1985)
Cooling Degree Days 10    
Growing Degree Days 25 (Base 50)    
Moisture  
Dew Point 63 °F    
Average Humidity 69    
Maximum Humidity 94    
Minimum Humidity 45    
Precipitation  
Precipitation 0.00 in - - ()
Sea Level Pressure  
Sea Level Pressure 29.79 in    
Wind  
Wind Speed 6 mph (North)    
Max Wind Speed 13 mph    
Max Gust Speed -    
Visibility 10 miles    
Events Rain    
Averages and records for this station are not official NWS values.
T = Trace of Precipitation, MM = Missing Value Source: NWS Daily Summary

Daily Weather History Graph

Daily Weather History Graph

Search for Another Location

Airport or City:

Astronomy

Jun. 05, 2019 Rise Set
Actual Time 5:36 AM CDT 8:57 PM CDT
Civil Twilight 5:01 AM CDT 9:32 PM CDT
Nautical Twilight 4:14 AM CDT 10:19 PM CDT
Astronomical Twilight 3:16 AM CDT 11:17 PM CDT
Moon 7:43 AM CDT (6/5) 11:23 PM CDT (6/5)
Length of Visible Light 16h 31m
Length of Day
15h 20m
Waxing Crescent, 7% of the Moon is Illuminated
Jun 5
Waxing Crescent
Jun 10
First Quarter
Jun 17
Full
Jun 25
Last Quarter
Jul 2
New

Hourly Weather History & Observations

Time (CDT) Temp. Heat Index Dew Point Humidity Pressure Visibility Wind Dir Wind Speed Gust Speed Precip Events Conditions
12:15 AM 68.0 °F - 62.6 °F 83% 29.66 in 10.0 mi South 8.1 mph - N/A   Clear
12:36 AM 66.2 °F - 62.6 °F 88% 29.68 in 10.0 mi SSW 6.9 mph - N/A   Clear
12:55 AM 68.0 °F - 62.6 °F 83% 29.68 in 10.0 mi SSW 6.9 mph - N/A   Clear
12:56 AM 68.0 °F - 62.6 °F 83% 29.69 in 10.0 mi SSW 6.9 mph - N/A   Clear
1:15 AM 66.2 °F - 62.6 °F 88% 29.70 in 10.0 mi WNW 5.8 mph - N/A   Clear
1:36 AM 66.2 °F - 62.6 °F 88% 29.70 in 10.0 mi NW 5.8 mph - N/A   Clear
1:55 AM 66.2 °F - 62.6 °F 88% 29.74 in 10.0 mi North 11.5 mph - N/A   Scattered Clouds
1:56 AM 66.2 °F - 62.6 °F 88% 29.74 in 10.0 mi North 12.7 mph - N/A   Scattered Clouds
2:15 AM 66.2 °F - 62.6 °F 88% 29.76 in 10.0 mi North 8.1 mph - N/A   Scattered Clouds
2:35 AM 66.2 °F - 62.6 °F 88% 29.77 in 10.0 mi NNW 5.8 mph - N/A   Scattered Clouds
2:36 AM 66.2 °F - 62.6 °F 88% 29.77 in 10.0 mi NNW 6.9 mph - N/A   Scattered Clouds
2:55 AM 68.0 °F - 62.6 °F 83% 29.77 in 10.0 mi NNW 11.5 mph - N/A   Scattered Clouds
2:56 AM 68.0 °F - 62.6 °F 83% 29.77 in 10.0 mi NNW 11.5 mph - N/A   Scattered Clouds
3:15 AM 66.2 °F - 62.6 °F 88% 29.77 in 10.0 mi North 9.2 mph - N/A   Clear
3:35 AM 66.2 °F - 62.6 °F 88% 29.74 in 10.0 mi East 4.6 mph - N/A   Clear
3:55 AM 66.2 °F - 62.6 °F 88% 29.73 in 10.0 mi SSE 4.6 mph - N/A   Clear
4:15 AM 66.2 °F - 62.6 °F 88% 29.73 in 10.0 mi South 3.5 mph - N/A Rain Light Rain
4:16 AM 66.2 °F - 62.6 °F 88% 29.73 in 10.0 mi Calm Calm - N/A Rain Light Rain
4:35 AM 66.2 °F - 62.6 °F 88% 29.71 in 10.0 mi South 9.2 mph - N/A   Light Drizzle
4:55 AM 66.2 °F - 62.6 °F 88% 29.71 in 10.0 mi SSW 8.1 mph - N/A   Scattered Clouds
4:56 AM 66.2 °F - 62.6 °F 88% 29.71 in 10.0 mi SSW 6.9 mph - N/A   Scattered Clouds
5:15 AM 66.2 °F - 62.6 °F 88% 29.71 in 10.0 mi SSW 5.8 mph - N/A   Clear
5:35 AM 66.2 °F - 62.6 °F 88% 29.71 in 10.0 mi SW 9.2 mph - N/A   Clear
5:55 AM 64.4 °F - 62.6 °F 94% 29.71 in 10.0 mi SW 9.2 mph - N/A   Clear
6:15 AM 66.2 °F - 62.6 °F 88% 29.72 in 10.0 mi SSW 8.1 mph - N/A   Clear
6:35 AM 66.2 °F - 62.6 °F 88% 29.73 in 10.0 mi Calm Calm - N/A   Clear
6:55 AM 66.2 °F - 62.6 °F 88% 29.74 in 10.0 mi ENE 3.5 mph - N/A   Clear
7:15 AM 69.8 °F - 64.4 °F 83% 29.76 in 10.0 mi NE 5.8 mph - N/A   Clear
7:35 AM 69.8 °F - 64.4 °F 83% 29.77 in 10.0 mi NNE 5.8 mph - N/A   Clear
7:56 AM 69.8 °F - 64.4 °F 83% 29.77 in 10.0 mi North 4.6 mph - N/A   Clear
8:15 AM 71.6 °F - 64.4 °F 78% 29.78 in 10.0 mi North 6.9 mph - N/A   Clear
8:16 AM 71.6 °F - 64.4 °F 78% 29.78 in 10.0 mi North 8.1 mph - N/A   Clear
8:35 AM 71.6 °F - 64.4 °F 78% 29.79 in 10.0 mi North 12.7 mph - N/A   Clear
8:56 AM 71.6 °F - 64.4 °F 78% 29.80 in 10.0 mi NNE 10.4 mph - N/A   Clear
9:15 AM 71.6 °F - 64.4 °F 78% 29.81 in 10.0 mi NNE 10.4 mph - N/A   Clear
9:16 AM 71.6 °F - 66.2 °F 83% 29.81 in 10.0 mi NNE 10.4 mph - N/A   Clear
9:35 AM 71.6 °F - 66.2 °F 83% 29.81 in 10.0 mi North 6.9 mph - N/A   Clear
9:55 AM 73.4 °F - 66.2 °F 78% 29.82 in 10.0 mi NNE 6.9 mph - N/A   Clear
10:15 AM 73.4 °F - 66.2 °F 78% 29.83 in 10.0 mi North 5.8 mph - N/A   Scattered Clouds
10:16 AM 73.4 °F - 66.2 °F 78% 29.83 in 10.0 mi North 4.6 mph - N/A   Scattered Clouds
10:35 AM 73.4 °F - 66.2 °F 78% 29.82 in 10.0 mi NNE 3.5 mph - N/A   Scattered Clouds
10:55 AM 75.2 °F - 66.2 °F 73% 29.82 in 10.0 mi North 3.5 mph - N/A   Scattered Clouds
11:15 AM 77.0 °F - 66.2 °F 69% 29.82 in 10.0 mi NNE 5.8 mph - N/A   Clear
11:16 AM 77.0 °F - 66.2 °F 69% 29.82 in 10.0 mi NNE 6.9 mph - N/A   Clear
11:35 AM 77.0 °F - 64.4 °F 65% 29.82 in 10.0 mi NNE 3.5 mph - N/A   Clear
11:55 AM 78.8 °F - 66.2 °F 65% 29.82 in 10.0 mi NE 6.9 mph - N/A   Clear
12:15 PM 78.8 °F - 64.4 °F 61% 29.83 in 10.0 mi ENE 4.6 mph - N/A   Clear
12:16 PM 78.8 °F - 64.4 °F 61% 29.83 in 10.0 mi NE 3.5 mph - N/A   Clear
12:35 PM 80.6 °F 82.3 °F 64.4 °F 58% 29.82 in 10.0 mi Calm Calm - N/A   Scattered Clouds
12:55 PM 80.6 °F 82.3 °F 64.4 °F 58% 29.83 in 10.0 mi NNE 5.8 mph - N/A   Scattered Clouds
12:56 PM 80.6 °F 82.3 °F 64.4 °F 58% 29.83 in 10.0 mi North 4.6 mph - N/A   Clear
1:16 PM 80.6 °F 82.3 °F 64.4 °F 58% 29.82 in 10.0 mi Calm Calm - N/A   Clear
1:35 PM 82.4 °F 83.9 °F 64.4 °F 54% 29.83 in 10.0 mi North 6.9 mph - N/A   Clear
1:55 PM 82.4 °F 83.9 °F 64.4 °F 54% 29.83 in 10.0 mi NW 4.6 mph - N/A   Clear
2:16 PM 82.4 °F 83.9 °F 64.4 °F 54% 29.83 in 10.0 mi North 4.6 mph - N/A   Clear
2:35 PM 82.4 °F 83.9 °F 64.4 °F 54% 29.82 in 10.0 mi North 6.9 mph - N/A   Scattered Clouds
2:36 PM 82.4 °F 83.9 °F 64.4 °F 54% 29.82 in 10.0 mi North 5.8 mph - N/A   Scattered Clouds
2:55 PM 84.2 °F 85.6 °F 64.4 °F 51% 29.82 in 10.0 mi ENE 4.6 mph - N/A   Clear
3:16 PM 82.4 °F 83.9 °F 64.4 °F 54% 29.82 in 10.0 mi Calm Calm - N/A   Clear
3:35 PM 82.4 °F 83.9 °F 64.4 °F 54% 29.82 in 10.0 mi WNW 3.5 mph - N/A   Scattered Clouds
3:36 PM 82.4 °F 83.9 °F 64.4 °F 54% 29.82 in 10.0 mi NNW 4.6 mph - N/A   Scattered Clouds
3:55 PM 84.2 °F 85.6 °F 64.4 °F 51% 29.82 in 10.0 mi Calm Calm - N/A   Scattered Clouds
4:15 PM 84.2 °F 85.6 °F 64.4 °F 51% 29.82 in 10.0 mi North 4.6 mph - N/A   Scattered Clouds
4:17 PM 84.2 °F 85.6 °F 64.4 °F 51% 29.82 in 10.0 mi NW 5.8 mph - N/A   Scattered Clouds
4:35 PM 84.2 °F 85.0 °F 62.6 °F 48% 29.82 in 10.0 mi NW 3.5 mph - N/A   Clear
4:55 PM 84.2 °F 85.0 °F 62.6 °F 48% 29.81 in 10.0 mi Calm Calm - N/A   Scattered Clouds
5:15 PM 86.0 °F 86.6 °F 62.6 °F 45% 29.81 in 10.0 mi WNW 4.6 mph - N/A   Mostly Cloudy
5:35 PM 86.0 °F 87.3 °F 64.4 °F 48% 29.82 in 10.0 mi NE 4.6 mph - N/A   Scattered Clouds
5:36 PM 86.0 °F 87.3 °F 64.4 °F 48% 29.82 in 10.0 mi ENE 3.5 mph - N/A   Scattered Clouds
5:55 PM 84.2 °F 85.0 °F 62.6 °F 48% 29.81 in 10.0 mi North 5.8 mph - N/A   Clear
6:15 PM 86.0 °F 86.6 °F 62.6 °F 45% 29.81 in 10.0 mi NW 4.6 mph - N/A   Clear
6:35 PM 84.2 °F 85.0 °F 62.6 °F 48% 29.81 in 10.0 mi NNW 8.1 mph - N/A   Clear
6:55 PM 84.2 °F 85.0 °F 62.6 °F 48% 29.81 in 10.0 mi North 4.6 mph - N/A   Clear
6:56 PM 84.2 °F 85.0 °F 62.6 °F 48% 29.81 in 10.0 mi North 3.5 mph - N/A   Clear
7:15 PM 84.2 °F 85.0 °F 62.6 °F 48% 29.81 in 10.0 mi NW 4.6 mph - N/A   Clear
7:36 PM 84.2 °F 84.4 °F 60.8 °F 45% 29.81 in 10.0 mi NNW 5.8 mph - N/A   Clear
7:55 PM 84.2 °F 85.0 °F 62.6 °F 48% 29.81 in 10.0 mi North 9.2 mph - N/A   Clear
8:15 PM 82.4 °F 83.4 °F 62.6 °F 51% 29.81 in 10.0 mi NNW 5.8 mph - N/A   Clear
8:36 PM 80.6 °F 81.8 °F 62.6 °F 54% 29.81 in 10.0 mi NNW 6.9 mph - N/A   Clear
8:55 PM 78.8 °F - 62.6 °F 57% 29.82 in - North 6.9 mph - N/A   Clear
9:15 PM 75.2 °F - 62.6 °F 65% 29.82 in - North 4.6 mph - N/A   Clear
9:36 PM 77.0 °F - 60.8 °F 57% 29.84 in 10.0 mi North 8.1 mph - N/A   Clear
9:56 PM 75.2 °F - 62.6 °F 65% 29.84 in 10.0 mi North 6.9 mph - N/A   Clear
10:15 PM 75.2 °F - 62.6 °F 65% 29.85 in 10.0 mi NNE 5.8 mph - N/A   Clear
10:35 PM 73.4 °F - 62.6 °F 69% 29.86 in 10.0 mi NNE 4.6 mph - N/A   Clear
10:55 PM 73.4 °F - 60.8 °F 65% 29.86 in 10.0 mi NNE 3.5 mph - N/A   Clear
10:56 PM 73.4 °F - 60.8 °F 65% 29.86 in 10.0 mi NNE 3.5 mph - N/A   Clear
11:15 PM 71.6 °F - 60.8 °F 69% 29.87 in 10.0 mi Calm Calm - N/A   Clear
11:35 PM 71.6 °F - 60.8 °F 69% 29.87 in 10.0 mi Calm Calm - N/A   Clear
11:55 PM 71.6 °F - 60.8 °F 69% 29.86 in 10.0 mi Calm Calm - N/A   Clear
11:56 PM 71.6 °F - 60.8 °F 69% 29.86 in 10.0 mi Calm Calm - N/A   Clear